TimeCST,TemperatureF,Dew PointF,Humidity,Sea Level PressureIn,VisibilityMPH,Wind Direction,Wind SpeedMPH,Gust SpeedMPH,PrecipitationIn,Events,Conditions,WindDirDegrees,DateUTC
12:55 AM,10.9,8.1,88,30.04,10.0,Calm,Calm,-,N/A,,Clear,0,2002-12-31 06:55:00
1:55 AM,10.9,8.1,88,30.06,10.0,Calm,Calm,-,N/A,,Clear,0,2002-12-31 07:55:00
2:55 AM,12.9,10.0,88,30.06,10.0,SE,4.6,-,N/A,,Clear,140,2002-12-31 08:55:00
3:55 AM,15.1,10.9,84,30.06,10.0,ESE,6.9,-,N/A,,Clear,110,2002-12-31 09:55:00
4:55 AM,15.1,12.0,88,30.04,10.0,East,4.6,-,N/A,,Clear,100,2002-12-31 10:55:00
5:55 AM,12.0,9.0,88,30.03,10.0,Calm,Calm,-,N/A,,Clear,0,2002-12-31 11:55:00
6:55 AM,16.0,12.0,84,30.03,10.0,East,5.8,-,N/A,,Clear,90,2002-12-31 12:55:00
7:55 AM,14.0,10.0,84,30.03,10.0,ESE,9.2,-,N/A,,Clear,120,2002-12-31 13:55:00
8:55 AM,16.0,10.9,81,30.02,10.0,East,9.2,-,N/A,,Clear,100,2002-12-31 14:55:00
9:55 AM,21.0,16.0,81,29.99,10.0,SE,10.4,-,N/A,,Clear,140,2002-12-31 15:55:00
10:55 AM,26.1,18.0,71,29.96,10.0,ESE,10.4,-,N/A,,Clear,110,2002-12-31 16:55:00
11:55 AM,25.0,16.0,69,29.95,10.0,SSE,13.8,-,N/A,,Clear,150,2002-12-31 17:55:00
12:55 PM,27.0,18.0,69,29.92,10.0,SSE,11.5,-,N/A,,Clear,150,2002-12-31 18:55:00
1:55 PM,30.0,18.0,61,29.88,10.0,SE,17.3,-,N/A,,Clear,130,2002-12-31 19:55:00
2:55 PM,30.0,18.0,61,29.86,10.0,ESE,18.4,-,N/A,,Partly Cloudy,120,2002-12-31 20:55:00
3:55 PM,28.9,17.1,61,29.87,10.0,ESE,16.1,-,N/A,,Partly Cloudy,120,2002-12-31 21:55:00
4:55 PM,28.0,17.1,63,29.87,10.0,East,15.0,-,N/A,,Mostly Cloudy,100,2002-12-31 22:55:00
5:55 PM,26.1,18.0,71,29.87,10.0,ESE,16.1,-,N/A,,Overcast,110,2002-12-31 23:55:00
6:55 PM,26.1,17.1,69,29.87,10.0,ESE,19.6,-,N/A,,Overcast,110,2003-01-01 00:55:00
7:55 PM,28.0,18.0,66,29.86,10.0,ESE,18.4,-,N/A,,Overcast,110,2003-01-01 01:55:00
8:55 PM,32.0,18.0,56,29.84,10.0,East,13.8,20.7,N/A,,Overcast,100,2003-01-01 02:55:00
9:55 PM,30.9,17.1,57,29.85,10.0,South,5.8,-,N/A,,Overcast,190,2003-01-01 03:55:00
10:55 PM,30.0,18.0,61,29.87,10.0,SE,16.1,-,N/A,,Overcast,130,2003-01-01 04:55:00
11:55 PM,28.9,18.0,64,29.87,10.0,ESE,17.3,-,N/A,,Overcast,120,2003-01-01 05:55:00